Terminal Aerodrome Forecast
Issued by NWS Shreveport, LA

Home | Current Version | Previous Version | Text Only | Print | Product List | Glossary On
Versions: 1 2 3 4 5 6 7 8 9 10 11 12 13 14 15 16 17 18 19 20 21 22 23 24 25
000
FTUS44 KSHV 251141
TAFSHV
TAF
KSHV 251141Z 2512/2612 22008KT 5SM BCFG VCSH OVC007
      TEMPO 2512/2515 6SM -SHRA BR BKN015
     FM251500 23013G20KT P6SM SCT030
     FM251800 23015G25KT P6SM SCT045
     FM260000 22004KT P6SM SCT250=

USA.gov is the U.S. government's official web portal to all federal, state and local government web resources and services.